Date String (YYYY-MM-DD hh:mm:ss) UTC,Instrument flags,absolute air pressure of the measurement (hPa),sample flow rate (lpm),inlet stack bypass flow (lpm),air temperature of the measurement (°C),ambient temperature measured by the external sensor (°C),aerosol sample conditioner tube jacket temperature (°C),OPC LED temperature (°C),internal box temperature (°C),relative humidity of the measurement (%),span deviation,mass concentration of particles derived from Lorenz-Mie calculation of OPC scattering (μg/m³),mass concentration of particles derived from Lorenz-Mie calculation of OPC scattering (μg/m³),mass concentration of particles derived from Lorenz-Mie calculation of OPC scattering (μg/m³)
DateTimeUTC,F1_M11,P_M11,Q1_M11,Q2_M11,T1_M11,T2_M11,T3_M11,T4_M11,T5_M11,U1_M11,ZSPAN_M11,X2_M11,X0_M11,X1_M11
2024-01-31 11:00:00,SystemResetWarning,0831.1,5.00,000.00,022.2,020.9,000.0,030.6,023.5,10.4,0000.0,0003.29,0007.67,0002.79
2024-01-31 11:01:00,SystemResetWarning,0831.1,5.00,000.00,022.2,020.9,000.0,030.6,023.5,10.4,0000.0,0003.26,0008.25,0002.77
2024-01-31 11:02:00,SystemResetWarning,0831.1,5.00,000.00,022.2,021.0,000.0,030.5,023.5,10.4,0000.0,0003.23,0008.27,0002.75
2024-01-31 11:03:00,SystemResetWarning,0831.2,5.00,000.00,022.2,020.9,000.0,030.5,023.5,10.4,0000.0,0003.20,0008.18,0002.71
2024-01-31 11:04:00,SystemResetWarning,0831.2,4.99,000.00,022.2,020.9,000.0,030.5,023.5,10.4,0000.0,0003.17,0008.13,0002.66
2024-01-31 11:05:00,SystemResetWarning,0831.2,5.00,000.00,022.1,020.9,000.0,030.5,023.5,10.4,0000.0,0003.16,0008.32,0002.61
2024-01-31 11:06:00,SystemResetWarning,0831.2,5.00,000.00,022.1,020.9,000.0,030.5,023.5,10.4,0000.0,0003.17,0008.05,0002.61
2024-01-31 11:07:00,SystemResetWarning,0831.2,5.00,000.00,022.1,020.9,000.0,030.5,023.5,10.4,0000.0,0003.15,0007.43,0002.60
2024-01-31 11:08:00,SystemResetWarning,0831.2,5.00,000.00,022.1,020.9,000.0,030.5,023.5,10.3,0000.0,0003.18,0007.29,0002.61
2024-01-31 11:09:00,SystemResetWarning,0831.2,5.01,000.00,022.1,020.9,000.0,030.5,023.5,10.3,0000.0,0003.22,0007.43,0002.64
2024-01-31 11:10:00,SystemResetWarning,0831.2,5.01,000.00,022.1,020.9,000.0,030.5,023.5,10.3,0000.0,0003.23,0007.44,0002.66
2024-01-31 11:11:00,SystemResetWarning,0831.1,5.01,000.00,022.1,020.9,000.0,030.5,023.5,10.4,0000.0,0003.22,0007.10,0002.67
2024-01-31 11:12:00,SystemResetWarning,0831.1,4.99,000.00,022.1,020.9,000.0,030.5,023.5,10.4,0000.0,0003.21,0006.08,0002.65
2024-01-31 11:13:00,SystemResetWarning,0831.1,4.99,000.00,022.1,020.9,000.0,030.5,023.5,10.4,0000.0,0003.21,0006.68,0002.66
2024-01-31 11:14:00,SystemResetWarning,0831.1,5.00,000.00,022.1,020.9,000.0,030.5,023.5,10.4,0000.0,0003.22,0006.74,0002.67
2024-01-31 11:15:00,SystemResetWarning,0831.1,5.01,000.00,022.1,020.8,000.0,030.5,023.5,10.3,0000.0,0003.20,0007.23,0002.69
2024-01-31 11:16:00,SystemResetWarning,0831.1,5.00,000.00,022.1,020.9,000.0,030.4,023.5,10.3,0000.0,0003.18,0006.73,0002.71
2024-01-31 11:17:00,SystemResetWarning,0831.1,5.01,000.00,022.1,020.9,000.0,030.4,023.5,10.3,0000.0,0003.16,0006.67,0002.69
2024-01-31 11:18:00,SystemResetWarning,0831.1,5.00,000.00,022.1,020.9,000.0,030.4,023.4,10.3,0000.0,0003.16,0006.67,0002.67
2024-01-31 11:19:00,SystemResetWarning,0831.2,4.99,000.00,022.1,020.9,000.0,030.4,023.4,10.4,0000.0,0003.11,0006.32,0002.63
2024-01-31 11:20:00,SystemResetWarning,0831.1,4.99,000.00,022.1,020.9,000.0,030.4,023.4,10.4,0000.0,0003.09,0006.16,0002.59
2024-01-31 11:21:00,SystemResetWarning,0831.1,5.00,000.00,022.1,020.9,000.0,030.4,023.4,10.4,0000.0,0003.02,0006.00,0002.54
2024-01-31 11:22:00,SystemResetWarning,0831.1,4.99,000.00,022.1,020.9,000.0,030.4,023.4,10.2,0000.0,0003.00,0006.66,0002.50
2024-01-31 11:23:00,SystemResetWarning,0831.2,5.01,000.00,022.1,020.9,000.0,030.4,023.4,10.2,0000.0,0002.98,0006.71,0002.49
2024-01-31 11:24:00,SystemResetWarning,0831.1,5.01,000.00,022.0,020.8,000.0,030.4,023.4,09.9,0000.0,0002.95,0005.66,0002.48
2024-01-31 11:25:00,SystemResetWarning,0831.1,5.00,000.00,022.0,020.8,000.0,030.4,023.4,09.6,0000.0,0002.92,0005.83,0002.44
2024-01-31 11:26:00,SystemResetWarning,0831.1,4.99,000.00,022.0,020.8,000.0,030.4,023.4,09.6,0000.0,0002.89,0005.32,0002.42
2024-01-31 11:27:00,SystemResetWarning,0831.1,5.00,000.00,022.0,020.8,000.0,030.4,023.4,09.6,0000.0,0002.88,0006.45,0002.41
2024-01-31 11:28:00,SystemResetWarning,0831.1,5.00,000.00,022.0,020.8,000.0,030.4,023.4,09.6,0000.0,0002.91,0006.94,0002.43
2024-01-31 11:29:00,SystemResetWarning,0831.1,5.00,000.00,022.0,020.8,000.0,030.4,023.4,09.6,0000.0,0002.95,0007.57,0002.44
2024-01-31 11:30:00,SystemResetWarning,0831.1,5.00,000.00,022.0,020.8,000.0,030.4,023.4,09.7,0000.0,0002.96,0007.60,0002.45
2024-01-31 11:31:00,SystemResetWarning,0831.1,4.99,000.00,022.0,020.8,000.0,030.4,023.4,09.6,0000.0,0002.91,0007.57,0002.45
2024-01-31 11:32:00,SystemResetWarning,0831.1,4.99,000.00,022.0,020.8,000.0,030.4,023.4,09.6,0000.0,0002.91,0007.55,0002.47
2024-01-31 11:33:00,SystemResetWarning,0830.9,5.00,000.00,022.0,020.8,000.0,030.3,023.3,09.6,0000.0,0002.95,0007.12,0002.50
2024-01-31 11:34:00,SystemResetWarning,0830.9,5.00,000.00,022.0,020.8,000.0,030.3,023.3,09.5,0000.0,0003.01,0007.13,0002.50
2024-01-31 11:35:00,SystemResetWarning,0831.0,5.00,000.00,022.0,020.7,000.0,030.3,023.3,09.4,0000.0,0003.01,0007.04,0002.50
2024-01-31 11:36:00,SystemResetWarning,0830.9,5.01,000.00,022.0,020.7,000.0,030.3,023.3,09.4,0000.0,0003.04,0006.86,0002.52
2024-01-31 11:37:00,SystemResetWarning,0831.0,5.00,000.00,021.9,020.7,000.0,030.3,023.3,09.4,0000.0,0003.10,0006.97,0002.55
2024-01-31 11:38:00,SystemResetWarning,0831.0,5.00,000.00,021.9,020.7,000.0,030.3,023.3,09.4,0000.0,0003.13,0005.97,0002.58
2024-01-31 11:39:00,SystemResetWarning,0831.0,5.01,000.00,021.9,020.7,000.0,030.3,023.3,09.4,0000.0,0003.15,0006.00,0002.58
2024-01-31 11:40:00,SystemResetWarning,0830.9,5.00,000.00,021.9,020.7,000.0,030.3,023.3,09.5,0000.0,0003.13,0005.28,0002.57
2024-01-31 11:41:00,SystemResetWarning,0830.9,5.00,000.00,021.9,020.7,000.0,030.3,023.3,09.5,0000.0,0003.12,0005.89,0002.60
2024-01-31 11:42:00,SystemResetWarning,0830.9,4.99,000.00,021.9,020.7,000.0,030.3,023.3,09.5,0000.0,0003.12,0005.87,0002.60
2024-01-31 11:43:00,SystemResetWarning,0830.9,4.99,000.00,021.9,020.7,000.0,030.3,023.3,09.5,0000.0,0003.13,0005.96,0002.61
2024-01-31 11:44:00,SystemResetWarning,0830.9,4.99,000.00,021.9,020.7,000.0,030.3,023.3,09.5,0000.0,0003.13,0006.11,0002.59
2024-01-31 11:45:00,SystemResetWarning,0830.9,5.01,000.00,021.9,020.8,000.0,030.3,023.3,09.7,0000.0,0003.15,0007.32,0002.62
2024-01-31 11:46:00,SystemResetWarning,0831.0,5.00,000.00,021.9,020.8,000.0,030.3,023.3,09.5,0000.0,0003.18,0007.40,0002.64
2024-01-31 11:47:00,SystemResetWarning,0831.1,5.01,000.00,021.9,020.8,000.0,030.3,023.3,09.4,0000.0,0003.21,0008.07,0002.68
2024-01-31 11:48:00,SystemResetWarning,0831.1,5.00,000.00,021.9,020.8,000.0,030.3,023.3,09.4,0000.0,0003.20,0009.12,0002.67
2024-01-31 11:49:00,SystemResetWarning,0831.1,4.99,000.00,021.9,020.8,000.0,030.2,023.3,09.6,0000.0,0003.16,0009.27,0002.61
2024-01-31 11:50:00,SystemResetWarning,0831.1,5.00,000.00,021.9,020.8,000.0,030.2,023.3,10.0,0000.0,0003.11,0008.92,0002.55
2024-01-31 11:51:00,SystemResetWarning,0831.1,5.00,000.00,021.9,020.7,000.0,030.2,023.3,10.0,0000.0,0003.03,0008.86,0002.45
2024-01-31 11:52:00,SystemResetWarning,0831.1,5.01,000.00,021.9,020.7,000.0,030.2,023.3,10.2,0000.0,0002.90,0008.39,0002.32
2024-01-31 11:53:00,SystemResetWarning,0831.0,5.01,000.00,021.9,020.7,000.0,030.2,023.2,09.7,0000.0,0002.74,0008.25,0002.20
2024-01-31 11:54:00,SystemResetWarning,0831.0,4.99,000.00,021.9,020.7,000.0,030.2,023.2,09.6,0000.0,0002.59,0008.22,0002.08
2024-01-31 11:55:00,SystemResetWarning,0831.0,4.99,000.00,021.9,020.7,000.0,030.2,023.2,09.5,0000.0,0002.43,0008.05,0001.95
2024-01-31 11:56:00,SystemResetWarning,0831.0,5.00,000.00,021.9,020.7,000.0,030.2,023.2,09.5,0000.0,0002.23,0007.13,0001.83
2024-01-31 11:57:00,SystemResetWarning,0831.0,5.01,000.00,021.8,020.7,000.0,030.2,023.2,09.6,0000.0,0002.03,0007.01,0001.68
2024-01-31 11:58:00,SystemResetWarning,0831.0,5.01,000.00,021.8,020.7,000.0,030.2,023.2,09.6,0000.0,0001.82,0006.10,0001.51
2024-01-31 11:59:00,SystemResetWarning,0831.0,5.01,000.00,021.8,020.7,000.0,030.2,023.2,09.6,0000.0,0001.59,0003.45,0001.34
